Preview of NWS' New Version of Forecast
This preview is not operational and should not be used for support decisions.

Regional Weather Roundup (RWR)

Issued by National Weather Service (NWS)

                            
000
ASUS46 KSEW 182110
RWRWA 

WASHINGTON REGIONAL WEATHER ROUNDUP
NATIONAL WEATHER SERVICE SEATTLE WA
200 PM PDT WED SEP 18 2019

NOTE:"FAIR" INDICATES FEW OR NO CLOUDS BELOW 12,000 FEET WITH NO 
SIGNIFICANT WEATHER AND/OR OBSTRUCTIONS TO VISIBILITY.

WAZ507-509-555>559-182200-
SEATTLE, TACOMA, EVERETT, AND VICINITY
  
CITY           SKY/WX    TMP DP  RH WIND       PRES   REMARKS
EVERETT        MOSUNNY   62  52  69 NW9       29.90S                  
BOEING FIELD   MOSUNNY   66  52  60 VRB6      29.89S                  
RENTON         MOSUNNY   66  53  63 N5        29.88S                  
SEATAC AIRPORT MOSUNNY   66  53  63 NW8       29.89S                  
JBLM-MCCHORD   PTSUNNY   63  59  88 CALM      29.89S                  
PUYALLUP       FAIR      64  57  77 CALM      29.89S                  
BREMERTON      PTSUNNY   63  53  70 N9          N/A                   
JBLM-FT LEWIS  NOT AVBL                                               
TACOMA NARROWS PTSUNNY   61  54  77 CALM      29.88F                  
$$
 
WAZ001-503-506-510-514-515-182200-
NORTH INTERIOR
  
CITY           SKY/WX    TMP DP  RH WIND       PRES   REMARKS
BELLINGHAM     PTSUNNY   65  52  62 W8        29.90S                  
FRIDAY HARBOR  SUNNY     63  52  67 N7        29.92R                  
EASTSOUND      MOSUNNY   59  55  88 N6        29.91S                  
PORT ANGELES   MOSUNNY   62  54  74 VRB5      29.92F                  
EDIZ HOOK      FAIR      61  54  78 S6        29.92S                  
PORT TOWNSEND  FAIR      63  54  72 W10       29.90S                  
NAS WHIDBEY    PTSUNNY   64  53  67 W10       29.94S                  
ARLINGTON      MOSUNNY   66  56  70 NW12      29.88F                  
BURLINGTON     MOSUNNY   66  55  68 NW13      29.89F                  
$$
 
WAZ020-022-039-040-504-511-512-182200-
SOUTHWEST INTERIOR
  
CITY           SKY/WX    TMP DP  RH WIND       PRES   REMARKS
SHELTON        MOSUNNY   65  53  65 N6        29.86S                  
OLYMPIA        PTSUNNY   65  52  62 N6        29.88S                  
CHEHALIS       FAIR      66  52  59 NE5       29.88S                  
KELSO          CLOUDY    64  53  67 SE5       29.87F                  
VANCOUVER      PTSUNNY   63  55  75 VRB3      29.87S                  
SCAPPOOSE, OR  CLOUDY    63  54  72 SW3       29.86S                  
PORTLAND, OR   PTSUNNY   63  56  78 VRB3      29.87F                  
$$
 
WAZ021-516-517-182200-
WASHINGTON COAST
  
CITY           SKY/WX    TMP DP  RH WIND       PRES   REMARKS
FORKS          MOSUNNY   66  53  63 NE8       29.89S                  
HOQUIAM        PTSUNNY   63  58  83 W12       29.89S                  
ASTORIA, OR    MOSUNNY   66  56  70 N12       29.87S                  
$$
 
WAZ019-023-024-040-567>569-182200-
CASCADE MOUNTAINS AND COLUMBIA GORGE
  
CITY           SKY/WX    TMP DP  RH WIND       PRES   REMARKS
STAMPEDE PASS  NOT AVBL                                               
TROUTDALE, OR  PTSUNNY   63  52  67 VRB3      29.87S                  
HOOD RIVER, OR PTCLDY    63  50  63 W5        29.86F                  
THE DALLES, OR CLOUDY    63  52  67 SW6       29.84F                  
$$

WAZ026-027-041>044-520-521-182200-
EAST SLOPES
  
CITY           SKY/WX    TMP DP  RH WIND       PRES   REMARKS
OMAK           PTSUNNY   61  48  62 N16       29.89S                  
WENATCHEE      LGT RAIN  58  52  80 N3        29.85F                  
ELLENSBURG     PTSUNNY   65  48  54 W7        29.84S                  
YAKIMA         PTSUNNY   67  48  50 VRB5      29.83F                  
SUNNYSIDE ARPT CLOUDY    65  51  60 S3        29.84R                  
YAKIMA TC      FAIR      65  46  51 SW9       29.82S                  
$$

WAZ028-034-035-182200-
COLUMBIA BASIN
  
CITY           SKY/WX    TMP DP  RH WIND       PRES   REMARKS
EPHRATA        CLOUDY    66  47  50 CALM      29.83F                  
MOSES LAKE     PTSUNNY   68  46  45 VRB3      29.84S                  
PASCO          SUNNY     73  45  36 NW6       29.82F                  
RICHLAND ARPT  MOCLDY    75  44  33 CALM      29.81                   
HERMISTON, OR  SUNNY     72  45  37 NW8       29.82F                  
$$

WAZ036>038-182200-
NORTHEAST WASHINGTON
  
CITY           SKY/WX    TMP DP  RH WIND       PRES   REMARKS
SPOKANE GEIGER CLOUDY    59  48  67 N6        29.87S                  
SPOKANE FELTS  CLOUDY    64  50  60 E12       29.87F                  
FAIRCHILD AFB  LGT RAIN  60  50  70 S6        29.86F                  
COEURDALENE,ID CLOUDY    59  48  67 W9        29.89F                  
DEER PARK      CLOUDY    57  50  77 VRB5      29.89S                  
$$

WAZ029>033-182200-
SOUTHEAST WASHINGTON
  
CITY           SKY/WX    TMP DP  RH WIND       PRES   REMARKS
PULLMAN        CLOUDY    61  45  55 NW5       29.89S                  
LEWISTON, ID   CLOUDY    68  44  42 NW3       29.83F                  
WALLA WALLA    MOSUNNY   68  44  42 VRB3      29.84S                  
PENDLETON, OR  PTSUNNY   65  49  56 NE5       29.84F                  
$$